Temperature
19 19 19 19 19 19 19 19 19 19 19 19 19 19 19 19 18 19 19 19 18 18 18 18 18 18 18 18 18 17 17 17 17 17 17 17 17 17 17 16 16 16 16
19 19 19 19 19 19 19 19 19 19 19 19 19 19 19 19 18 19 19 19 18 18 18 18 18 18 18 18 18 18 17 17 17 17 17 17 17 17 17 17 16 16 16
19 19 19 19 19 19 19 19 18 18 19 19 19 19 19 19 19 19 19 19 18 18 18 18 18 18 18 18 18 17 17 17 17 17 17 17 17 17 17 17 17 17 17
19 19 19 19 19 19 19 19 18 18 18 19 19 19 19 19 19 19 19 19 19 19 18 18 18 18 18 18 18 18 17 17 17 17 17 17 17 17 17 17 17 17 16
19 19 19 19 19 19 19 18 18 18 18 19 19 19 19 19 19 19 19 19 19 19 19 18 18 18 18 18 18 18 17 17 17 17 17 17 17 17 17 17 16 16 16
19 19 19 19 19 19 18 18 18 18 18 18 19 19 19 19 19 19 19 19 19 19 18 18 18 18 18 18 18 18 18 18 17 17 17 17 17 17 17 16 16 16 16
19 19 19 19 19 19 19 18 18 18 18 18 19 19 19 19 19 19 19 19 19 19 18 18 18 18 18 18 18 18 18 18 18 17 17 17 17 17 17 16 16 16 16
19 19 19 19 19 19 19 19 19 18 18 18 18 18 18 18 19 19 19 19 19 19 18 18 18 18 18 18 18 18 18 18 18 18 17 17 17 17 17 16 16 16 16
19 19 19 19 19 19 19 19 19 18 18 18 18 18 18 18 18 18 18 18 18 18 18 18 18 18 18 18 18 18 18 18 18 18 17 17 17 17 17 16 16 16 16
19 19 19 19 19 19 19 19 18 18 18 18 18 18 18 18 18 18 18 18 18 18 18 18 18 18 18 18 18 18 17 17 17 17 17 17 17 17 17 16 16 16 16
19 19 19 19 19 19 18 18 18 18 18 18 18 18 18 18 18 18 18 18 18 18 18 18 18 18 18 17 17 17 17 17 17 17 17 17 17 17 17 16 16 16 16
19 19 19 19 19 18 18 18 18 18 18 18 18 18 18 18 18 18 18 18 18 18 18 18 18 17 17 17 17 17 17 17 17 17 17 17 17 16 16 16 16 16 16
19 19 19 19 18 18 18 18 18 18 18 18 18 18 18 18 18 18 18 17 17 17 17 17 17 17 17 17 17 17 17 17 16 16 16 16 16 16 16 16 16 16 16
19 19 19 19 18 18 18 18 18 18 18 18 18 18 18 18 17 17 17 17 17 17 17 17 17 17 17 17 17 17 17 17 17 16 16 16 16 16 16 16 16 16 15
19 19 19 18 18 18 18 18 18 17 17 17 17 17 17 17 17 17 17 17 17 17 17 17 17 17 17 17 16 17 17 17 16 16 16 16 16 16 16 16 15 15 15
19 19 18 18 18 18 18 18 18 17 17 17 17 17 17 17 17 17 17 17 17 17 16 16 16 16 16 16 16 16 16 16 16 16 16 16 15 15 15 15 15 15 15
19 18 18 18 18 18 18 17 17 17 17 17 17 17 17 17 17 17 17 17 16 16 16 16 16 16 16 16 16 16 16 16 16 16 16 15 15 15 15 15 15 15 15
18 18 18 18 18 18 18 18 17 17 17 17 17 17 17 17 17 17 16 16 16 16 16 16 16 15 15 15 15 15 15 15 15 15 15 15 15 15 15 15 15 15 15
18 18 18 18 18 18 18 17 17 17 17 17 17 16 16 16 16 16 16 16 16 15 15 15 15 15 15 15 15 15 15 15 15 15 15 15 15 15 15 14 14 14 14
18 18 18 18 17 17 17 17 17 17 17 16 16 16 16 16 16 16 15 15 15 15 15 15 15 14 14 14 14 14 14 14 14 14 14 14 14 14 14 14 14 14 14
18 18 18 17 17 17 17 17 17 17 16 16 16 16 16 16 16 15 15 15 15 15 14 14 14 14 14 14 14 14 14 14 14 14 14 14 14 14 14 14 14 14 14
18 18 18 17 17 17 17 17 17 17 16 16 16 16 16 15 15 15 15 15 14 14 14 14 14 14 13 13 13 13 13 13 13 13 13 14 13 14 14 14 14 14 14
18 17 17 17 17 17 17 16 16 16 16 16 15 15 15 15 15 15 15 14 14 14 14 14 13 13 13 13 13 13 13 13 13 13 13 13 13 13 13 13 13 13 13
17 17 17 17 17 17 17 16 16 16 16 15 15 15 15 15 14 14 14 14 14 14 13 13 13 13 13 13 13 12 12 12 12 12 12 12 13 13 13 13 13 13 13
17 17 17 17 17 16 16 16 16 15 15 15 15 15 14 14 14 14 14 14 14 13 13 13 13 13 13 13 12 12 12 12 12 12 12 12 12 12 12 12 12 12 12
17 17 16 16 16 16 16 16 15 15 15 15 14 14 14 14 14 14 13 13 13 13 13 13 13 13 12 12 12 12 12 12 12 12 12 12 12 12 11 12 12 12 12
Wind_Speed
3 3 3 4 4 5 4 4 4 5 5 5 5 5 5 6 7 8 9 12 13 14 15 14 13 13 13 13 13 13 12 12 11 11 10 9 10 10 10 10 10 10 10
4 3 2 2 3 5 5 5 4 4 3 2 2 3 4 5 7 8 8 10 14 15 15 14 14 14 14 14 13 13 13 12 12 11 11 10 10 10 10 9 10 10 10
5 3 2 2 3 4 4 3 3 2 2 2 2 2 2 4 6 7 8 7 9 12 15 15 14 15 15 14 14 13 13 13 13 12 12 12 11 11 11 10 10 10 10
6 4 2 2 3 2 2 2 2 1 1 1 1 2 2 2 4 5 7 8 8 8 11 14 15 15 14 14 14 14 13 13 13 13 12 12 12 12 12 11 11 11 11
6 4 2 2 2 1 1 2 1 2 1 1 2 2 2 2 3 4 5 7 8 8 9 11 13 14 14 14 13 13 12 12 12 12 12 13 12 13 13 12 12 11 11
5 4 2 2 2 1 0 0 1 1 2 2 2 2 2 2 2 3 4 4 6 8 9 9 9 10 12 13 13 13 13 12 12 12 12 12 12 12 13 12 12 12 12
5 4 2 2 1 1 1 1 1 0 1 1 1 2 2 1 1 2 2 3 4 6 7 8 8 8 8 11 12 12 12 12 11 12 12 12 13 12 12 12 12 12 13
4 3 2 2 2 1 1 1 1 1 1 1 2 1 2 3 2 2 1 2 2 3 4 7 7 8 8 8 10 13 12 11 11 11 11 12 12 13 13 13 12 12 12
4 3 3 2 2 2 2 1 1 2 1 1 1 3 2 2 2 3 1 1 1 2 3 4 6 8 9 8 8 10 11 12 11 11 11 11 12 13 13 13 13 13 12
3 4 4 3 3 2 2 2 2 2 2 1 1 1 2 3 2 2 3 2 2 2 3 3 3 5 7 7 8 9 10 11 12 12 11 12 12 12 12 12 13 12 12
2 3 3 3 2 2 2 2 1 1 2 2 1 1 0 0 2 2 2 2 2 1 2 2 2 3 5 6 7 8 11 11 12 13 13 12 12 11 11 11 12 12 12
1 2 3 3 3 2 3 2 2 2 1 1 1 1 1 1 2 2 2 2 2 2 2 1 1 2 4 5 6 7 9 10 11 12 12 11 11 11 11 11 10 11 12
2 3 3 2 2 3 3 2 1 1 1 1 2 1 2 2 2 2 2 1 1 2 1 1 1 1 2 4 6 9 9 9 9 9 10 9 8 9 10 10 10 10 11
4 3 3 3 3 3 3 2 1 1 1 1 1 1 1 1 1 2 2 2 0 1 1 2 1 1 2 3 6 8 7 8 8 9 9 9 8 8 9 9 10 9 9
4 4 4 3 3 2 3 3 1 1 1 1 1 1 1 1 0 1 2 3 3 1 2 2 2 1 2 3 4 4 4 6 8 9 10 10 9 8 8 8 8 8 8
3 4 4 4 3 2 2 2 2 1 1 1 1 1 0 1 0 1 1 2 3 3 2 2 2 2 2 2 2 2 3 4 5 7 8 8 8 8 8 8 7 8 8
4 4 4 4 3 3 3 2 2 2 2 1 0 1 0 0 0 0 0 1 1 2 2 3 2 1 1 2 2 2 2 2 2 5 7 8 8 7 7 8 8 8 8
4 4 3 3 4 3 4 4 4 3 2 2 1 1 1 0 0 1 0 0 1 2 2 2 2 1 2 2 2 2 2 2 1 2 4 5 7 7 7 7 8 8 8
4 4 3 4 4 4 4 4 4 4 3 3 3 2 2 1 0 1 0 0 0 0 1 2 2 1 1 1 1 2 2 2 1 1 1 3 5 6 6 7 8 9 8
5 5 4 4 4 4 4 4 4 4 3 3 3 3 2 2 2 1 1 0 0 1 1 0 1 1 1 1 1 1 2 2 2 1 0 2 3 4 5 6 7 8 8
6 5 5 5 4 4 5 5 4 4 4 3 2 2 2 2 2 2 1 1 1 1 0 0 1 1 1 1 1 1 1 2 2 1 1 1 1 1 3 4 6 7 7
4 4 4 4 4 5 5 5 5 3 3 3 3 2 2 1 1 1 1 1 2 2 2 2 1 1 2 2 1 1 1 1 2 2 1 2 1 2 2 3 5 6 7
5 4 4 4 4 4 5 5 5 4 4 3 3 2 1 1 1 1 1 1 1 1 3 4 3 3 3 3 2 1 1 2 3 3 0 2 1 2 2 3 4 6 6
4 5 4 4 3 3 4 5 5 4 3 3 3 3 3 2 1 1 1 1 1 2 2 2 3 4 4 4 3 3 3 2 2 2 1 2 2 2 2 2 3 3 4
4 4 3 4 4 3 4 5 6 3 3 2 2 3 3 3 2 3 2 1 1 3 3 1 1 2 3 4 3 1 1 1 1 2 1 1 1 1 1 2 2 2 2
5 4 3 4 4 3 4 6 6 4 3 2 1 1 3 3 3 2 2 2 2 3 3 3 3 4 3 3 3 3 3 3 2 2 2 1 1 0 1 2 1 2 2
Wind_Direction
198 201 211 212 215 217 216 215 220 229 237 231 218 209 202 199 196 199 209 210 202 202 204 205 206 206 204 204 203 202 202 202 202 204 205 206 206 207 208 209 207 209 208
190 189 202 214 220 217 216 212 218 221 232 238 248 228 210 193 194 197 207 208 206 206 207 207 208 208 208 209 209 207 207 206 207 207 208 208 209 210 210 211 211 213 213
186 179 198 220 225 217 212 210 221 214 233 247 262 252 216 192 184 191 202 207 212 215 213 213 213 214 213 213 212 210 210 211 212 212 211 210 211 212 214 215 213 214 216
183 175 199 224 223 217 198 200 208 199 237 241 246 250 242 209 196 194 198 201 205 211 217 220 218 219 219 218 215 213 213 214 215 216 216 215 214 214 215 218 217 219 218
185 173 197 214 197 191 211 217 172 179 214 252 255 252 252 232 224 206 199 206 210 210 210 217 217 219 222 222 219 219 217 218 218 218 219 219 219 218 218 219 219 221 221
184 169 179 197 167 146 258 183 171 190 202 218 257 288 274 249 232 209 206 198 206 215 213 212 211 217 222 223 221 221 221 221 222 222 222 221 221 221 221 222 222 223 223
183 165 177 188 152 145 188 168 154 197 242 182 89 345 334 312 257 229 205 190 198 205 206 210 207 205 215 222 220 221 221 220 222 223 224 223 222 221 222 223 225 225 227
180 169 163 178 163 154 146 97 114 129 273 135 135 91 357 343 330 275 226 192 202 192 204 210 201 202 208 213 220 221 220 218 221 223 224 225 224 225 225 225 225 226 229
174 161 167 170 172 159 176 189 146 141 182 294 169 146 148 236 301 323 297 251 203 208 213 209 208 207 209 210 215 220 219 215 218 222 224 226 225 224 224 225 225 225 228
178 169 168 170 174 166 179 199 142 146 145 214 290 231 185 177 175 308 321 304 243 217 212 208 204 201 209 205 208 213 217 218 220 222 225 226 225 224 225 225 224 223 224
193 180 169 161 163 170 177 172 143 147 154 176 210 243 260 172 158 176 264 303 322 283 237 218 193 196 208 211 214 222 224 224 224 223 224 223 223 221 219 220 221 223 224
225 203 179 168 173 177 180 186 172 159 166 180 192 184 176 179 200 180 210 246 276 290 290 273 215 185 202 206 215 220 229 233 231 227 224 222 221 218 216 217 218 221 222
215 221 201 186 187 190 185 175 169 180 190 188 206 216 205 208 194 179 176 216 253 288 315 327 275 179 205 210 222 224 231 231 233 231 228 222 219 216 214 216 221 224 226
210 206 190 185 186 183 181 165 167 202 196 212 232 221 217 237 190 173 172 160 146 316 303 281 318 255 232 226 232 231 236 230 224 226 223 221 218 219 217 220 224 227 228
204 191 184 187 190 179 170 160 171 209 178 210 238 205 208 270 279 169 161 158 158 213 274 273 280 290 265 247 251 237 236 231 221 220 217 211 212 221 220 220 223 225 226
195 187 186 191 193 190 181 168 170 189 149 217 217 122 143 256 15 47 127 148 159 170 228 261 250 262 288 309 298 276 267 250 234 221 213 210 212 219 222 227 228 228 226
185 187 188 186 185 192 184 169 187 181 181 215 235 138 233 192 94 359 84 119 133 146 207 273 270 284 302 305 317 308 304 289 251 221 217 215 217 217 220 225 228 228 227
194 188 177 175 180 184 183 182 197 194 191 203 211 166 255 274 23 334 63 108 166 167 174 242 286 292 276 271 290 308 326 324 273 230 220 219 223 221 223 226 230 228 227
193 190 176 178 188 190 190 194 194 196 201 210 206 200 229 184 251 289 318 228 270 152 155 182 260 273 280 292 340 337 341 340 307 263 234 234 235 237 236 235 234 232 230
191 193 193 194 196 195 196 197 196 197 200 211 208 205 209 190 202 215 206 206 169 30 67 132 280 302 297 318 47 325 328 318 306 293 241 209 231 243 246 242 240 237 234
197 195 195 204 205 203 203 194 199 196 194 199 206 214 213 197 193 188 183 182 168 177 149 143 275 311 308 331 306 269 283 302 302 264 278 246 227 264 274 262 251 245 239
203 199 202 206 212 223 214 202 195 192 190 192 203 217 225 210 175 126 103 163 180 185 193 183 215 237 269 266 271 260 235 317 299 280 255 276 237 256 270 255 247 247 244
201 203 206 199 208 220 206 198 190 178 184 194 194 195 208 194 150 107 42 31 8 284 195 182 196 223 234 239 229 251 245 246 252 257 202 276 277 267 278 276 258 251 247
201 205 207 202 205 222 204 195 185 169 167 177 182 177 177 182 186 155 127 54 348 319 260 205 205 226 234 232 218 219 220 254 274 279 191 238 275 274 300 307 292 266 247
202 207 201 185 192 220 201 183 161 151 159 176 189 182 174 178 185 148 133 146 320 315 317 296 229 259 266 266 236 164 158 128 295 296 276 185 248 279 298 293 312 332 297
195 188 187 191 194 211 202 184 166 157 164 182 208 207 187 181 181 163 168 187 250 283 308 339 347 343 328 307 272 200 188 182 207 269 274 181 223 111 337 311 321 334 337
Height
1548 1548 1548 1549 1549 1549 1550 1550 1550 1551 1551 1551 1551 1551 1552 1552 1552 1552 1552 1553 1553 1554 1553 1554 1554 1554 1554 1554 1555 1555 1556 1556 1556 1556 1556 1557 1557 1558 1559 1560 1560 1561 1562
1547 1548 1548 1548 1548 1548 1549 1549 1549 1549 1550 1550 1550 1550 1550 1550 1550 1551 1551 1552 1552 1552 1552 1552 1553 1553 1553 1553 1553 1554 1554 1554 1554 1555 1555 1555 1555 1556 1557 1558 1558 1559 1560
1547 1547 1547 1547 1547 1547 1547 1547 1548 1548 1548 1548 1549 1548 1549 1549 1549 1549 1549 1550 1551 1551 1551 1551 1551 1551 1551 1551 1552 1552 1552 1552 1552 1553 1553 1553 1554 1554 1555 1555 1556 1557 1558
1547 1546 1546 1546 1546 1546 1546 1546 1546 1546 1546 1547 1547 1547 1547 1547 1547 1548 1548 1548 1549 1549 1549 1549 1549 1549 1549 1550 1550 1550 1550 1550 1550 1551 1551 1551 1551 1552 1552 1553 1554 1555 1556
1546 1546 1546 1545 1545 1545 1545 1545 1545 1545 1545 1545 1545 1545 1545 1546 1545 1546 1546 1546 1547 1547 1547 1547 1548 1547 1547 1547 1547 1548 1548 1548 1548 1548 1549 1549 1549 1550 1550 1551 1551 1552 1553
1545 1545 1545 1544 1544 1544 1544 1544 1543 1543 1543 1543 1543 1543 1543 1544 1544 1544 1544 1545 1545 1545 1545 1545 1545 1545 1545 1545 1545 1546 1546 1545 1546 1546 1546 1546 1547 1547 1548 1548 1549 1549 1550
1544 1544 1544 1543 1543 1543 1543 1542 1542 1542 1542 1542 1542 1541 1542 1542 1542 1543 1543 1543 1543 1543 1543 1543 1543 1543 1543 1543 1543 1543 1543 1543 1543 1543 1544 1544 1544 1545 1545 1545 1546 1546 1547
1543 1543 1543 1543 1542 1542 1541 1541 1541 1540 1540 1540 1540 1540 1540 1542 1541 1541 1541 1541 1541 1542 1542 1542 1542 1541 1541 1541 1540 1541 1541 1541 1541 1541 1541 1541 1541 1542 1542 1543 1543 1543 1544
1542 1542 1541 1541 1541 1541 1540 1540 1539 1539 1539 1539 1539 1540 1540 1539 1539 1540 1540 1540 1540 1540 1540 1540 1539 1539 1539 1538 1539 1539 1539 1539 1539 1539 1539 1539 1539 1539 1539 1540 1540 1540 1541
1540 1541 1540 1540 1540 1539 1539 1539 1538 1538 1538 1538 1538 1538 1539 1539 1539 1538 1539 1539 1539 1539 1538 1538 1538 1537 1537 1537 1536 1536 1536 1536 1536 1536 1536 1536 1536 1536 1536 1537 1537 1537 1538
1539 1539 1539 1539 1538 1538 1538 1537 1537 1537 1537 1537 1536 1537 1537 1537 1537 1537 1537 1537 1537 1537 1537 1536 1536 1535 1535 1535 1535 1534 1534 1534 1534 1534 1534 1534 1533 1533 1533 1533 1534 1534 1535
1536 1537 1537 1537 1537 1536 1536 1536 1535 1535 1535 1535 1535 1535 1535 1535 1535 1535 1535 1535 1535 1535 1535 1535 1534 1533 1533 1533 1532 1532 1532 1532 1532 1532 1532 1531 1531 1530 1530 1531 1531 1531 1532
1534 1534 1534 1534 1534 1534 1534 1534 1534 1534 1534 1534 1534 1533 1533 1533 1533 1533 1533 1533 1533 1533 1533 1533 1532 1532 1531 1531 1530 1530 1530 1530 1529 1529 1529 1529 1529 1528 1528 1528 1529 1529 1529
1532 1532 1532 1532 1532 1533 1533 1533 1533 1533 1533 1532 1532 1532 1532 1531 1531 1531 1531 1531 1531 1531 1531 1531 1530 1530 1529 1529 1529 1528 1528 1527 1527 1527 1526 1526 1526 1526 1526 1526 1526 1526 1526
1530 1530 1530 1530 1531 1531 1531 1531 1531 1531 1531 1531 1530 1530 1530 1530 1529 1529 1529 1530 1530 1529 1529 1528 1528 1528 1527 1527 1526 1525 1525 1524 1524 1524 1524 1523 1523 1523 1524 1524 1524 1524 1523
1527 1527 1528 1528 1528 1529 1529 1529 1529 1529 1529 1529 1528 1528 1528 1527 1527 1527 1527 1527 1527 1527 1526 1526 1526 1525 1525 1524 1523 1522 1522 1522 1521 1521 1521 1521 1521 1521 1521 1521 1521 1521 1520
1524 1525 1525 1526 1526 1527 1527 1527 1527 1527 1527 1526 1526 1526 1525 1525 1525 1525 1525 1525 1525 1525 1524 1523 1523 1522 1522 1521 1521 1520 1519 1519 1519 1519 1519 1519 1518 1518 1518 1518 1518 1518 1517
1522 1522 1523 1523 1523 1524 1524 1524 1524 1525 1524 1524 1523 1523 1523 1523 1523 1523 1522 1522 1522 1522 1522 1520 1520 1520 1519 1519 1518 1517 1517 1516 1516 1516 1516 1516 1515 1515 1515 1515 1515 1515 1514
1519 1520 1520 1520 1521 1521 1521 1522 1522 1522 1522 1522 1521 1521 1521 1521 1521 1520 1520 1520 1520 1520 1519 1518 1517 1517 1516 1516 1515 1515 1514 1513 1513 1513 1513 1513 1513 1512 1512 1511 1512 1512 1511
1516 1516 1516 1517 1517 1518 1518 1519 1519 1519 1519 1519 1519 1519 1519 1519 1518 1518 1518 1518 1517 1517 1517 1516 1515 1514 1514 1513 1513 1512 1511 1511 1510 1510 1510 1510 1509 1509 1509 1509 1509 1508 1508
1512 1513 1513 1514 1514 1515 1515 1515 1516 1516 1516 1516 1517 1517 1517 1516 1516 1516 1516 1515 1515 1514 1514 1513 1513 1512 1511 1511 1510 1509 1508 1507 1507 1507 1507 1507 1506 1506 1505 1505 1505 1505 1505
1509 1510 1510 1511 1511 1512 1512 1512 1513 1513 1513 1514 1514 1514 1514 1514 1514 1514 1513 1512 1512 1512 1511 1510 1510 1509 1509 1508 1508 1507 1506 1505 1504 1505 1504 1504 1504 1503 1503 1502 1502 1502 1502
1506 1507 1507 1508 1508 1508 1509 1509 1509 1510 1510 1511 1511 1511 1511 1511 1511 1511 1510 1510 1509 1509 1509 1508 1507 1507 1506 1506 1505 1504 1504 1503 1502 1502 1502 1500 1501 1500 1500 1499 1499 1499 1499
1503 1504 1504 1505 1505 1505 1506 1506 1506 1507 1507 1507 1508 1508 1508 1508 1508 1508 1507 1507 1506 1506 1506 1505 1505 1504 1504 1503 1502 1502 1501 1500 1500 1500 1499 1498 1498 1497 1497 1497 1497 1496 1496
1500 1500 1501 1501 1501 1502 1502 1503 1503 1503 1504 1504 1505 1505 1505 1505 1505 1505 1504 1504 1503 1503 1503 1503 1502 1502 1501 1500 1499 1499 1498 1497 1496 1496 1497 1496 1495 1494 1494 1494 1494 1494 1493
1496 1497 1497 1497 1498 1498 1499 1499 1500 1500 1500 1501 1502 1501 1502 1502 1501 1501 1501 1501 1500 1500 1500 1499 1499 1499 1498 1497 1497 1496 1496 1495 1494 1494 1494 1493 1493 1492 1491 1491 1491 1491 1491